User: anonymous   Login
Location: Newark
(53.3333°N, 83.7500°E)
Time: 07:33:20
(UTC+00:00)
Language:

Transit 2A Rocket - Orbit

View from above orbital plane
View from above orbital plane
View from above satellite
View from above satellite

Ground track
Ground track

The orbit data is extracted from the following two-line orbital elements,

1    47U 60007C   19318.17715949 -.00000029  00000-0  18401-4 0  9999
2    47  66.6675  13.2822 0220484 101.9433 260.6481 14.42058054103945
Epoch (UTC): 14 November 2019 04:15:06
Eccentricity: 0.0220484
inclination: 66.6675°
perigee height: 594 km
apogee height: 909 km
right ascension of ascending node: 13.2822°
argument of perigee: 101.9433°
revolutions per day: 14.42058054
mean anomaly at epoch: 260.6481°
orbit number at epoch: 10394

The dashed part of the orbit path shows where the satellite is in the earth's shadow,  

DLR